Regional Weather Roundup
Issued by NWS

Home | Current Version | Previous Version | Graphics & Text | Print | Product List | Glossary On
Versions: 1 2 3 4 5 6 7 8 9 10 11 12 13 14 15 16 17 18 19 20 21 22 23 24 25 26 27 28 29 30 31 32 33 34 35 36 37 38 39 40 41 42 43 44 45 46 47 48 49 50
000
ASUS44 KMEG 171500
RWRTN
TENNESSEE HOURLY STATE WEATHER ROUNDUP
NATIONAL WEATHER SERVICE MEMPHIS TN
1000 AM CDT THU AUG 17 2017

TNZ002-004-019-021-049-052-054-088>092-171600-
WEST TENNESSEE

CITY           SKY/WX    TMP DP  RH WIND       PRES   REMARKS
MEMPHIS INTL   CLOUDY    83  77  82 SW10      30.01F HX  92
NWS MEMPHIS      N/A     81 N/A N/A MISG        N/A
JACKSON        CLOUDY    79  77  94 SW7       30.02S
DYERSBURG      CLOUDY    79  75  87 SW8G17    30.00S
$$

TNZ008-025-027-028-033-062-065-066-171600-
NORTH MIDDLE TENNESSEE

CITY           SKY/WX    TMP DP  RH WIND       PRES   REMARKS
NASHVILLE      MOSUNNY   84  73  69 SW7       30.04R HX  90
CLARKSVILLE    CLOUDY    80  73  79 SW12      30.01R
SMYRNA         MOSUNNY   84  75  74 SW12      30.05R HX  92
CROSSVILLE     PTSUNNY   79  71  76 W12       30.12F
$$

TNZ061-075-076-078-094-096-097-171600-
SOUTH MIDDLE TENNESSEE

CITY           SKY/WX    TMP DP  RH WIND       PRES   REMARKS
$$

TNZ017-018-042-046-047-171600-
NORTHEAST TENNESSEE

CITY           SKY/WX    TMP DP  RH WIND       PRES   REMARKS
TRI CITIES     PTSUNNY   78  73  84 CALM      30.11S
$$

TNZ012-013-036-069-073-074-171600-
CENTRAL EAST TENNESSEE

CITY           SKY/WX    TMP DP  RH WIND       PRES   REMARKS
KNOXVILLE      CLOUDY    81  74  79 S13       30.07F
OAK RIDGE      PTSUNNY   80  73  79 VRB6      30.08F
GATLINBURG     PTSUNNY   79  72  78 SW9       30.08F
$$

TNZ083-085-099-171600-
SOUTHEAST TENNESSEE

CITY           SKY/WX    TMP DP  RH WIND       PRES   REMARKS
CHATTANOOGA    MOSUNNY   85  72  65 SW6       30.08S HX  91
$$

SKY/WX REPORTED AS FAIR MEANS FEW OR NO CLOUDS BELOW
12 THOUSAND FEET.





USA.gov is the U.S. government's official web portal to all federal, state and local government web resources and services.